This is the latest recevied weather packets stored in our database for station/object KW4UJ. If no packets are shown the sender has not sent any weather packets the latest 10 day(s).
| Time | Temp. | Humidity | Pressure | Rain* | Wind** | Luminosity | Snow |
|---|---|---|---|---|---|---|---|
| 1777466361 | 12.22° C | 79% | 1014 hPa | 0 mm | - | 50 W/m² | - |
| 1777466057 | 12.22° C | 79% | 1014.2 hPa | 0 mm | - | 42 W/m² | - |
| 1777465754 | 12.22° C | 79% | 1014.2 hPa | 0 mm | - | 38 W/m² | - |
| 1777465450 | 12.22° C | 79% | 1013.9 hPa | 0 mm | - | 34 W/m² | - |
| 1777465149 | 12.22° C | 79% | 1014 hPa | 0 mm | - | 37 W/m² | - |
| 1777464844 | 12.22° C | 80% | 1013.9 hPa | 0 mm | - | 41 W/m² | - |
| 1777464539 | 12.22° C | 79% | 1013.9 hPa | 0 mm | - | 33 W/m² | - |
| 1777464236 | 12.22° C | 79% | 1014.1 hPa | 0 mm | - | 27 W/m² | - |
| 1777463936 | 12.22° C | 79% | 1014 hPa | 0 mm | - | 27 W/m² | - |
| 1777463632 | 12.22° C | 79% | 1014 hPa | 0 mm | - | 24 W/m² | - |
| 1777463327 | 12.22° C | 79% | 1014 hPa | 0 mm | - | 24 W/m² | - |
| 1777463024 | 12.22° C | 79% | 1014 hPa | 0 mm | - | 19 W/m² | - |
| 1777462719 | 12.22° C | 79% | 1014.2 hPa | 0 mm | - | 16 W/m² | - |
| 1777462414 | 12.22° C | 79% | 1014.2 hPa | 0 mm | - | 17 W/m² | - |
| 1777462111 | 12.22° C | 79% | 1014.2 hPa | 0 mm | - | 16 W/m² | - |
| 1777461808 | 12.22° C | 79% | 1014.3 hPa | 0 mm | - | 15 W/m² | - |
| 1777461503 | 12.22° C | 78% | 1014.4 hPa | 0 mm | - | 13 W/m² | - |
| 1777461200 | 12.22° C | 78% | 1014.3 hPa | 0 mm | - | 11 W/m² | - |
| 1777460895 | 12.22° C | 78% | 1014.4 hPa | 0 mm | - | 10 W/m² | - |
| 1777460591 | 12.22° C | 78% | 1014.6 hPa | 0 mm | - | 8 W/m² | - |
| 1777460287 | 12.22° C | 78% | 1014.4 hPa | 0 mm | - | 6 W/m² | - |
| 1777459985 | 12.22° C | 78% | 1014.3 hPa | 0 mm | - | 5 W/m² | - |
| 1777459681 | 12.22° C | 78% | 1014.4 hPa | 0 mm | - | 4 W/m² | - |
| 1777459377 | 12.22° C | 78% | 1014.1 hPa | 0 mm | - | 5 W/m² | - |
| 1777459075 | 12.22° C | 78% | 1014.3 hPa | 0 mm | - | 4 W/m² | - |
* Rain latest hour (hover to see other rain measurements)
** Current wind speed in m/s (hover to see current wind gust speed)